FREGAT R/B, 43235

Orbit data source: Space-Track

FREGAT R/B, 43235 is space debris originally from a launch on Fri, 09 Mar 2018 UTC launched from the French Guiana (FRGUI). Debris objects in space refer to the collection of defunct objects orbiting the Earth. Examples of debris include non-operational satellites, rocket bodies, and fragments generated from explosions, collisions, or faulty payload assembly.

Loading next visibility...
Identifier
43235, 2018-024E
Orbit
Active
Country
Flag of CISCIS
Related business
Manufacturer
Lavochkin
Mission
Spacecraft
Bus & Motor
FREGAT, Unknown motor
Mass
1,050 kg wet, 1,050 kg dry
Launch date (UTC)
2018-03-09 (8 years ago)
Launch vehicle
Unknown
Launch site
French Guiana (FRGUI)
Object type
Payload
Rocket body
Debris
Shape & HBR
Irr, 1.6 m
Radar Cross Section
11.055 m², Large (>1 m²)

Expand to show TLE details & history
Last TLE update: 1 day ago

TLE from 1 day ago
0 FREGAT R/B
1 43235U 18024E   25306.34261690 -.00000008  00000-0  00000+0 0  9997
2 43235   0.1110 352.2273 0010541 279.9067  87.7529  5.21347400145731
Epoch: 2025-11-02T08:13Z
TLE epoch observation values (Epoch: 2025-11-02T08:13:22.100Z)
Latitude
0.01903°
Longitude
-165.20183°
Altitude
7,668.903 km
Speed
5.328 km/s
True Right ascension
23h 59m 59s
True Declination
0° 01' 08"
Sunlit
Object was in daylight at epoch
Visualization orbit readout
Latitude
Unknown
Longitude
Unknown
Altitude
Unknown
Speed
Unknown
Apparent Right ascension
Unknown
Apparent Declination
Unknown
Sunlit
N/A
Visualization observer readout
Local Sidereal Time
10:57:02
Azimuth
Unknown
Elevation
Unknown
Doppler factor
Unknown
Orbital elements
Apogee altitude
7,688.98 km
Perigee altitude
7,659.355 km
Semi-major axis
14,052.304 km
Eccentricity
0.00105
Inclination
0.111°
RAAN
352.2273°
Arg. of periapsis
279.9067°
True anomaly
87.8736°
Mean anomaly
87.7529°
Eccentric anomaly
87.81325°
Mean motion
1.30293 °/min
Orbital period
276.3 mins
BSTAR
0
Loading maneuver chart data...
Computing Atmospheric mass density...
Loading historical data...
Loading historical data...
Loading historical data...
Loading historical data...
Loading historical data...
Loading historical data...
Loading historical data...
Other satellites on launch #24 in the year 2018 (2018-03-09 UTC)

Documentation

Showing up to 5 results
|